Theta_e
317 317 317 318 319 319 319 319 319 319 318 318 318 317 318 318 318 318 318 318 319 320 320 320 319 321 322 323 323 323 324 325 325 324 324 325 325 325 324 324 324 324 323 323 323 323 322 322 322 321 320 319 319 320 321 321 322 322 322 322 322 322 321 321 321 321 321 322 322 322 322 321 321 321 320 320 320 319 318 316 315 314 314 315 315
317 317 317 318 319 319 319 319 319 318 318 317 317 317 317 317 318 318 318 318 319 321 323 322 320 320 322 323 323 323 323 324 325 325 325 325 324 325 324 324 324 324 324 324 323 323 323 322 322 322 321 320 319 319 319 320 321 321 320 320 321 321 320 320 320 320 321 322 322 322 321 320 320 320 319 319 319 319 318 315 315 315 315 315 314
317 317 317 318 319 319 319 318 318 317 317 317 317 316 316 316 317 317 318 318 319 320 322 322 322 320 321 323 323 322 322 323 324 324 324 325 325 324 324 324 324 324 324 324 323 323 323 322 322 322 321 320 319 318 319 320 320 320 320 320 321 322 322 321 321 322 322 322 321 321 320 321 321 320 319 319 319 319 317 315 315 315 315 315 314
317 316 316 317 318 318 317 317 317 316 317 316 316 316 315 315 316 316 316 317 318 320 320 321 321 320 320 322 322 321 321 321 322 323 324 324 324 324 324 325 324 324 324 323 323 323 323 322 322 322 321 320 319 319 319 319 319 321 322 322 322 323 323 322 322 323 322 321 321 321 321 321 320 319 319 320 319 318 317 316 315 315 315 315 314
318 316 315 315 316 316 316 315 315 315 315 315 315 315 315 315 315 315 316 316 317 319 319 319 319 319 319 320 320 320 320 321 322 323 323 323 323 324 325 325 325 324 324 323 323 322 322 322 322 321 320 320 320 320 320 320 320 321 322 322 322 322 321 321 321 322 322 322 322 320 319 319 319 320 320 320 318 317 317 316 315 315 315 314 314
319 318 316 314 313 314 314 313 313 313 314 314 314 315 315 315 315 315 315 316 316 317 318 318 318 319 319 320 320 320 321 322 323 324 324 324 324 325 325 325 324 324 323 323 323 323 322 321 321 321 320 320 321 322 323 323 322 321 321 320 320 320 321 322 322 322 322 322 321 319 319 319 320 320 319 318 317 316 316 315 315 315 314 313 313
318 319 318 315 313 313 313 313 313 312 312 313 313 313 314 314 314 314 314 314 315 315 316 316 317 318 319 321 321 322 322 323 324 324 324 324 324 325 324 324 324 323 323 322 321 321 320 320 320 320 320 320 321 322 322 322 323 323 323 322 321 321 323 323 323 322 321 321 320 320 320 320 320 319 318 317 316 316 315 315 315 315 314 313 311
319 319 319 317 315 313 313 313 313 313 312 312 312 311 312 312 312 312 312 312 312 313 313 314 315 317 318 320 321 322 323 324 324 324 324 324 324 324 324 323 323 323 323 322 321 321 320 319 319 319 320 321 321 320 320 321 322 323 323 324 323 322 323 323 321 320 321 321 321 320 319 319 318 317 317 316 316 316 316 316 315 315 314 312 310
318 319 319 319 317 315 313 313 312 312 312 311 311 311 311 311 311 311 311 311 311 311 311 311 312 314 315 316 318 320 322 323 323 323 324 324 324 323 323 323 322 322 322 323 323 323 321 319 319 319 320 322 321 320 321 322 322 323 323 324 323 322 322 322 321 321 321 321 320 319 318 318 318 317 316 316 316 317 316 315 314 314 312 310 309
318 319 318 319 319 318 317 316 315 313 312 312 311 311 310 310 310 310 311 311 311 311 310 310 310 311 312 313 314 317 318 319 319 321 322 322 323 323 323 323 322 323 323 322 322 322 320 320 322 321 319 321 322 322 323 322 321 322 323 323 322 321 322 323 322 322 321 320 320 319 319 318 318 317 317 317 317 316 315 315 314 313 310 309 308
318 318 319 318 319 319 319 319 318 316 314 312 311 311 310 310 310 310 311 311 311 311 310 310 310 310 310 310 311 313 314 314 315 317 319 321 322 322 322 323 323 322 322 321 321 321 318 318 320 320 320 321 322 323 324 323 322 322 322 323 322 320 321 321 321 321 320 319 319 318 318 317 317 316 316 316 317 316 315 314 313 311 309 308 308
318 318 318 318 319 319 319 319 320 319 316 314 312 311 310 310 310 310 311 312 312 312 312 312 311 310 309 309 309 310 310 311 313 314 316 318 320 321 322 322 322 322 322 322 321 320 319 318 317 319 321 322 322 323 324 323 322 322 323 322 321 320 320 320 320 318 317 317 318 317 317 317 316 316 316 316 316 316 314 312 312 310 308 307 307
318 318 318 318 318 319 319 319 319 320 319 316 314 312 311 310 310 310 311 311 312 313 314 313 311 310 310 309 310 310 309 309 310 311 313 316 318 320 321 321 322 322 321 322 320 319 321 321 319 320 322 323 323 323 323 323 322 322 321 321 321 320 319 319 318 317 316 317 317 318 318 317 316 315 315 315 314 313 312 311 310 308 306 306 307
318 318 318 318 318 318 318 319 319 319 319 319 317 315 314 312 311 310 310 311 312 313 314 313 311 310 310 310 310 310 309 309 309 309 312 315 317 319 320 321 322 321 321 322 320 317 318 320 320 321 322 323 323 322 322 322 322 321 320 319 319 319 318 318 317 317 317 317 317 318 317 316 315 314 314 313 312 312 312 310 308 306 304 305 304
317 317 318 318 318 318 318 318 318 319 319 319 319 318 317 316 313 311 311 311 312 313 314 314 313 311 310 310 310 310 310 309 309 309 311 314 317 318 319 320 320 321 322 323 319 315 317 320 321 322 322 321 320 321 321 321 321 321 320 319 318 319 319 318 317 318 318 317 317 317 316 314 313 313 312 312 311 311 310 309 306 305 304 304 301
316 316 316 317 317 317 318 318 318 318 318 318 318 318 318 318 317 314 312 311 311 312 314 315 314 311 310 310 310 310 310 309 309 309 310 313 317 319 319 320 320 320 319 319 318 318 320 322 322 322 321 319 318 319 321 322 321 321 320 320 320 320 319 319 318 318 317 317 316 316 315 314 313 312 312 312 311 310 309 307 305 304 304 302 298
313 314 314 314 315 315 316 317 318 318 318 318 318 318 318 319 319 317 314 312 310 311 312 314 313 312 310 310 310 310 310 310 309 309 309 311 314 317 318 319 320 318 316 317 320 321 321 322 321 318 317 316 317 318 319 321 321 321 320 320 320 320 319 319 318 317 317 316 315 315 314 313 313 312 313 312 311 309 307 305 304 304 302 300 296
313 312 312 312 313 313 314 315 316 318 318 318 318 318 318 319 319 319 317 314 311 310 311 312 313 312 311 311 311 311 310 310 309 309 309 309 310 312 313 313 314 316 317 319 321 321 320 320 317 316 316 318 318 319 319 320 320 319 319 320 320 319 319 318 317 317 316 315 314 314 313 313 313 313 313 311 310 307 305 304 303 301 300 297 294
313 313 313 312 312 312 312 313 314 315 316 317 318 318 318 318 318 319 318 316 312 310 310 311 312 313 312 311 311 311 311 310 310 309 309 309 308 309 310 311 312 315 317 318 319 319 318 316 316 317 319 320 319 319 320 320 319 318 318 319 319 318 318 317 317 316 316 315 314 313 312 312 312 312 311 310 308 306 304 303 302 300 297 295 293
313 313 313 313 313 312 312 312 312 312 313 314 315 316 317 318 318 318 318 318 315 311 310 310 311 312 312 312 311 311 311 311 310 310 309 309 309 308 309 311 312 312 312 314 314 313 313 315 318 319 320 319 319 319 320 320 319 318 318 318 317 317 317 316 316 315 314 313 313 312 311 311 312 311 310 309 307 306 304 302 301 299 296 294 293
312 312 313 313 313 312 312 312 312 312 312 312 313 314 315 316 317 317 318 318 316 313 311 310 310 311 311 311 311 311 311 311 311 310 310 309 309 309 308 309 309 308 309 310 310 309 311 313 316 318 319 318 317 316 318 319 319 318 317 317 316 315 315 315 315 314 313 312 311 311 311 311 310 310 308 308 307 305 303 301 299 297 295 294 292
312 312 312 312 312 312 312 311 311 312 312 312 312 312 312 313 315 316 316 316 316 315 313 312 310 310 310 310 311 311 311 311 311 310 310 310 309 309 309 309 309 309 309 309 310 311 311 311 313 314 315 315 314 314 316 317 317 316 316 315 314 313 313 313 313 312 312 311 312 311 311 310 309 308 308 307 306 305 303 300 298 296 295 293 292
311 311 312 312 312 312 311 311 310 311 312 312 312 312 312 312 313 314 315 315 315 315 315 313 312 311 310 310 311 310 310 311 311 311 310 310 309 309 309 309 309 309 309 310 312 313 314 314 314 314 314 315 315 315 316 315 315 315 314 313 312 312 313 313 312 311 311 311 311 311 310 309 308 307 307 306 305 304 302 299 297 295 293 292 290
310 311 311 311 311 311 311 310 310 310 311 312 312 312 311 311 311 312 313 314 314 314 314 313 312 312 311 311 311 311 310 310 310 310 310 310 309 309 309 309 309 310 310 310 312 314 316 317 317 316 316 315 315 314 313 314 314 314 312 312 312 313 312 312 311 310 310 311 310 309 309 308 307 307 306 305 303 301 298 296 294 292 291 290 289
309 310 310 309 308 309 310 310 310 310 310 311 312 311 311 310 310 311 311 312 313 313 312 312 311 311 311 310 311 310 310 310 310 310 310 310 309 309 309 309 309 310 310 310 311 312 313 314 315 314 314 313 312 311 311 311 312 312 312 312 313 313 312 311 310 310 310 309 309 308 308 307 306 305 304 301 299 296 294 292 291 290 289 288 288
308 308 309 308 307 307 308 309 310 309 309 310 310 311 311 310 310 310 310 311 311 312 312 311 310 310 310 311 310 310 309 309 309 310 309 309 309 309 309 308 308 309 310 309 310 311 311 312 312 311 310 310 310 310 311 312 312 312 311 311 312 312 311 310 309 309 308 308 308 308 307 306 304 302 300 297 295 293 292 291 290 289 288 288 288
307 307 307 307 306 306 307 308 308 309 309 309 309 310 311 311 311 310 310 310 310 311 311 310 310 309 309 309 309 309 309 308 309 309 309 309 309 308 308 307 307 308 309 309 309 310 311 311 311 310 310 310 310 311 312 312 311 311 310 311 311 311 309 308 308 307 307 307 307 306 305 303 301 299 297 294 293 292 291 290 290 289 289 289 289
307 307 306 306 306 306 306 307 307 308 308 309 309 309 309 310 311 311 311 310 310 310 310 310 309 309 308 307 306 307 308 308 308 308 309 309 308 307 306 306 306 306 307 307 307 308 309 310 310 311 311 311 311 311 311 310 310 310 310 310 310 309 308 307 306 305 306 306 306 304 302 300 298 296 294 293 292 291 291 291 291 291 290 289 289
308 307 307 306 306 306 306 306 306 307 308 308 308 308 309 309 310 311 311 311 311 310 310 310 309 307 307 307 306 305 306 307 307 307 308 308 307 306 305 305 306 306 306 307 307 307 308 309 310 310 310 310 310 310 309 309 309 309 309 309 308 308 307 306 305 305 305 305 303 301 299 297 296 295 294 293 292 292 292 292 291 290 289 287 287
306 307 307 307 306 306 306 306 306 306 307 307 307 308 308 308 309 309 310 310 311 311 311 311 309 307 306 306 305 305 305 305 305 306 307 307 306 306 305 305 306 306 307 307 307 308 309 309 309 309 309 309 309 309 309 308 308 308 308 307 306 306 306 305 305 305 304 302 300 298 297 296 295 294 294 294 294 293 292 291 289 288 287 286 286
303 305 307 307 307 306 306 306 306 305 306 306 307 307 307 308 308 308 309 309 310 311 311 311 310 309 307 306 305 304 305 304 304 304 305 305 304 304 304 304 305 305 305 306 306 307 307 307 308 308 308 308 308 308 308 308 308 308 307 306 305 304 304 304 304 303 302 300 297 296 295 295 295 294 294 294 293 291 289 288 287 286 286 286 285
300 302 305 306 307 307 307 306 306 306 306 306 306 306 306 306 307 308 308 308 309 310 310 311 310 310 309 307 305 303 303 304 304 304 303 304 304 304 304 304 304 304 304 304 304 305 305 306 306 306 306 307 307 307 307 307 307 307 306 305 304 304 304 303 303 302 300 298 296 295 295 294 294 294 293 291 289 288 287 287 286 286 286 285 285
298 299 302 304 306 307 307 306 306 306 305 306 305 306 306 306 306 306 307 307 308 309 309 310 310 310 309 308 306 304 302 302 302 303 303 303 303 303 304 304 304 304 304 304 304 304 304 305 305 306 306 306 306 306 307 307 306 306 305 305 305 305 304 303 301 300 298 296 295 294 294 294 293 291 290 288 287 287 287 286 286 285 285 284 284
297 298 299 302 304 305 306 307 306 306 306 305 305 305 305 305 305 305 305 306 307 308 308 309 309 309 309 308 307 305 303 302 301 302 302 302 303 303 303 303 304 304 304 304 305 305 305 305 305 306 306 306 306 306 306 306 305 305 304 304 304 304 303 302 300 298 296 294 293 293 293 292 290 288 287 287 287 286 286 286 285 284 284 284 284
296 297 298 300 302 304 305 305 306 306 306 306 305 305 305 305 305 304 304 304 304 305 307 307 308 309 309 308 307 305 304 302 301 301 301 301 302 303 303 303 303 303 303 304 304 304 305 306 306 306 306 306 306 306 306 305 305 304 304 303 303 302 301 300 297 294 293 293 293 292 290 288 287 287 287 287 286 286 285 285 284 284 284 284 283
296 297 297 298 300 302 303 304 305 305 306 306 305 304 304 304 304 303 303 303 302 303 303 304 306 307 308 308 307 305 303 302 301 301 301 301 302 302 302 303 303 304 304 304 303 303 303 304 305 305 305 305 305 305 305 304 304 303 303 303 302 302 299 297 294 292 292 292 290 288 287 287 287 286 286 286 285 285 284 284 284 284 284 283 283
296 296 297 298 299 300 301 302 303 304 304 305 305 305 304 303 302 302 302 301 301 301 301 301 301 303 305 307 307 306 303 302 301 301 301 301 302 301 301 302 303 303 304 304 303 303 303 303 304 304 304 304 303 303 303 303 303 302 301 301 300 299 296 293 291 291 290 289 287 286 286 286 286 286 285 285 284 284 284 284 284 284 283 283 282
296 296 297 298 298 299 300 301 301 302 303 303 304 304 304 303 301 300 299 299 299 299 299 299 299 299 301 303 305 305 303 301 300 300 301 301 301 300 300 300 301 302 303 303 303 303 303 303 304 304 304 303 302 301 302 302 302 300 300 299 297 294 292 291 290 289 288 286 286 286 286 286 285 285 284 284 284 284 284 284 283 283 283 283 282
296 296 297 297 298 298 299 299 300 300 301 302 303 303 303 302 301 299 297 297 297 297 296 297 297 298 298 298 300 302 302 301 300 300 301 301 301 301 300 299 299 300 300 301 301 302 302 303 304 303 302 301 301 300 300 301 300 298 297 296 294 292 291 290 288 287 285 285 286 286 285 285 284 284 283 284 284 284 284 283 283 283 282 282 282
296 296 297 297 298 298 298 298 298 299 299 300 300 301 301 300 300 298 296 295 295 295 294 295 296 296 297 297 297 298 299 300 300 300 300 301 301 301 300 300 299 299 299 299 299 300 301 302 303 302 300 300 300 299 299 298 297 295 294 293 292 291 289 288 286 285 285 285 285 285 284 284 283 283 284 284 284 284 283 283 283 282 282 282 282
295 296 296 297 297 297 297 297 297 297 297 297 297 297 298 298 298 296 294 293 293 293 293 294 294 294 295 295 296 296 297 297 298 298 299 300 300 301 301 300 300 299 298 298 298 299 299 301 301 300 299 299 298 297 297 295 294 293 292 291 290 289 287 285 285 285 285 285 284 283 283 283 283 284 284 284 284 283 283 282 282 282 282 282 281
294 294 295 296 296 296 296 296 296 296 295 295 294 294 295 296 296 294 293 292 292 292 292 293 293 293 294 294 295 295 295 295 296 297 297 298 298 299 299 299 298 298 298 297 297 298 298 299 299 299 298 298 297 296 295 293 292 292 291 290 288 286 285 285 285 284 284 283 283 283 283 284 284 284 284 284 283 283 282 282 282 282 281 281 281
290 292 293 293 294 294 294 295 294 294 293 292 291 292 292 293 293 293 292 291 291 291 292 292 292 293 293 293 293 293 294 294 295 295 296 296 296 296 296 296 296 296 295 295 295 296 297 297 297 297 297 296 296 294 293 291 291 290 289 286 285 284 284 284 284 283 283 283 283 284 284 284 284 284 284 283 283 282 282 282 282 281 281 281 280
288 289 290 291 292 293 293 293 293 292 291 289 289 289 290 291 291 291 291 291 291 291 291 291 291 292 292 292 292 292 293 293 293 294 294 295 295 295 295 294 294 293 293 293 293 294 295 295 295 295 294 293 292 291 290 289 288 287 285 284 284 284 283 283 283 283 283 284 284 284 284 284 284 284 283 283 282 282 281 281 281 281 281 280 280
288 289 290 290 291 291 291 291 291 290 290 289 288 289 289 289 289 289 289 289 289 290 290 290 290 291 291 291 291 291 291 292 292 292 293 293 293 293 293 292 292 291 291 292 292 293 293 293 292 292 291 290 289 288 287 286 285 284 283 283 283 283 283 283 283 284 284 285 285 285 284 284 284 283 283 282 282 281 281 281 281 280 280 280 280
287 287 288 288 289 289 289 289 289 289 289 288 288 288 288 288 288 288 288 288 288 288 288 289 289 289 289 290 290 290 290 290 291 291 291 291 291 291 291 291 290 290 290 290 291 291 290 290 289 289 288 287 286 285 284 283 283 283 283 283 283 283 284 284 285 285 285 285 285 284 284 284 283 283 282 282 281 281 280 280 280 280 280 280 280
285 285 286 286 286 287 287 287 287 287 287 287 287 287 287 287 287 286 286 286 287 287 287 287 287 287 288 288 288 288 288 289 289 289 289 289 289 289 289 289 289 289 289 288 288 288 288 287 286 286 285 284 283 283 282 282 283 283 283 284 284 285 285 285 285 285 285 284 284 284 283 283 282 282 281 281 281 280 280 280 280 279 279 279 279
283 283 283 283 284 284 284 284 284 284 285 285 285 285 285 285 285 285 285 285 285 285 285 286 286 286 286 287 286 287 287 287 287 287 287 287 287 287 287 287 287 287 287 286 286 285 284 284 283 283 282 282 282 282 283 283 284 284 285 285 285 285 285 285 285 284 284 284 283 283 282 282 282 281 281 280 280 280 279 279 279 279 279 279 279
281 281 281 281 281 281 281 281 281 282 282 282 283 283 283 283 283 283 284 284 284 284 284 284 284 285 285 285 285 285 285 285 285 285 286 286 286 286 285 285 285 285 285 284 283 282 282 282 282 282 282 283 283 284 284 285 285 285 285 285 285 285 284 284 284 283 283 283 282 282 282 281 281 280 280 280 279 279 279 279 279 279 279 279 279
280 280 280 279 279 279 279 279 279 280 280 280 280 281 281 281 281 282 282 282 282 282 282 282 283 283 283 283 283 283 283 283 284 284 284 284 284 284 284 283 283 283 282 282 282 282 282 283 283 284 284 284 285 285 285 285 285 285 284 284 284 284 284 283 283 283 282 282 282 281 281 281 280 280 279 279 279 279 279 279 278 278 278 278 278
279 279 279 279 279 279 279 279 279 278 279 279 279 279 279 279 279 280 280 281 281 281 281 281 281 281 281 282 282 282 283 283 283 283 283 283 283 282 282 281 281 282 282 282 283 283 284 284 284 285 285 285 285 285 285 284 284 284 284 284 283 283 283 283 282 282 282 281 281 281 280 280 279 279 279 278 278 278 278 278 278 278 278 278 278
Wind_Speed
30 30 28 26 25 24 24 25 27 30 31 32 32 33 33 34 36 37 38 37 38 39 40 41 41 41 42 43 43 43 41 41 41 41 39 39 39 40 41 42 43 44 43 43 42 43 43 43 43 43 42 41 40 39 40 39 37 36 35 35 36 36 36 38 38 36 34 33 32 30 31 30 27 25 26 26 26 25 24 23 22 22 23 23 24
28 28 27 27 27 27 27 29 30 32 33 32 32 32 32 32 33 35 36 36 36 35 35 37 39 39 40 41 41 41 40 40 40 40 39 39 39 40 41 42 43 43 43 44 44 44 44 43 44 43 42 41 40 39 38 37 37 37 36 36 37 37 36 36 34 34 34 34 32 29 29 29 27 27 29 29 27 25 23 22 21 21 23 23 24
27 27 26 26 28 28 29 30 31 31 32 32 31 31 30 30 31 33 34 34 35 35 34 34 36 38 39 39 39 40 38 38 38 38 38 39 39 40 41 42 42 43 44 45 44 44 44 44 44 43 41 40 40 38 37 36 36 36 35 34 35 36 35 33 32 34 34 32 30 29 28 28 27 28 29 28 28 26 24 22 21 21 22 23 24
29 28 27 27 27 28 29 28 29 29 30 31 31 30 29 29 30 31 33 33 34 35 34 35 36 37 38 38 38 39 38 37 37 37 38 39 39 40 40 41 43 43 44 44 43 43 43 44 44 42 39 38 38 36 35 33 34 35 35 35 35 36 34 31 31 32 32 31 31 30 28 28 28 28 28 29 28 26 25 23 21 21 21 22 23
30 29 28 28 27 27 27 27 27 28 29 29 29 28 28 28 28 29 30 31 33 33 34 35 36 36 37 37 37 38 37 37 37 37 38 39 39 40 40 41 42 43 42 42 41 41 41 42 41 39 37 35 33 31 30 29 30 33 35 36 36 35 33 33 32 30 31 33 32 29 30 31 30 30 31 30 27 25 25 24 22 21 21 22 24
30 30 28 28 27 26 25 26 27 27 27 27 27 27 27 27 27 28 28 29 31 32 33 35 35 35 36 36 36 37 37 37 38 37 38 39 40 40 40 40 41 41 40 39 39 39 39 38 37 35 34 33 31 30 31 31 30 30 31 33 33 33 32 32 32 31 33 34 32 31 32 33 32 32 32 30 27 26 26 24 23 22 22 23 25
30 30 30 28 27 27 26 26 27 27 28 28 27 27 27 27 27 28 28 29 30 30 32 34 34 35 36 36 36 37 37 38 38 37 38 39 39 39 38 38 38 37 37 37 38 38 37 35 35 34 33 33 32 32 33 33 32 31 31 32 32 33 34 33 31 31 32 32 33 33 33 33 33 33 32 29 28 28 27 26 24 23 23 23 23
31 30 30 28 25 27 27 27 28 28 29 29 29 29 28 28 28 28 29 30 30 30 32 33 34 34 35 36 36 37 37 38 38 38 38 38 38 37 36 35 36 36 36 37 37 37 36 35 34 34 34 33 32 32 32 32 33 34 35 36 35 33 33 32 30 29 30 30 32 32 32 32 32 31 30 29 30 29 27 26 25 24 25 25 23
32 30 29 28 25 24 26 28 28 29 30 30 31 31 30 29 29 28 28 28 29 30 31 32 33 34 36 37 37 37 37 38 38 38 38 37 36 36 35 35 35 35 36 37 38 38 38 36 34 35 36 35 33 32 32 32 33 34 33 33 31 28 28 29 29 30 30 30 30 30 30 30 30 30 30 29 28 27 25 24 25 25 25 25 24
33 32 30 29 28 26 26 26 27 28 29 30 31 32 32 31 30 28 27 26 27 28 30 32 33 34 36 37 38 39 39 39 39 38 38 37 35 35 34 35 35 35 37 38 39 40 39 38 38 37 36 35 35 35 35 33 34 34 31 29 29 29 28 28 28 30 30 29 29 30 31 32 32 31 29 27 25 24 24 25 25 24 24 25 24
33 33 32 31 30 30 29 28 27 27 27 28 30 31 32 32 31 29 27 25 25 26 29 31 32 33 35 37 38 40 41 41 40 39 38 37 36 35 35 35 36 37 38 38 39 40 38 38 39 38 34 34 36 36 35 33 33 34 32 31 33 33 31 27 26 27 28 28 29 31 32 32 32 31 28 26 25 25 24 24 25 24 23 24 24
34 35 34 33 32 32 31 30 29 27 25 26 27 29 30 32 33 32 28 25 24 26 28 29 31 33 34 36 37 39 40 41 41 40 40 39 37 36 36 37 37 38 39 39 41 40 36 34 36 36 35 35 35 35 34 33 33 34 32 30 31 32 31 28 27 27 27 28 28 29 30 30 29 29 27 25 24 23 22 23 24 24 23 23 22
34 35 35 34 33 33 33 32 30 28 26 25 25 27 28 29 32 33 31 28 25 25 26 29 32 33 34 35 36 38 39 39 39 40 40 40 38 37 37 37 38 40 40 40 40 39 37 35 35 36 37 37 35 34 34 33 33 34 34 31 30 31 30 28 29 29 29 28 28 27 28 28 27 26 23 20 19 21 22 24 25 24 22 21 20
35 34 34 33 33 33 33 33 32 30 28 26 26 26 26 27 29 31 32 30 27 25 26 29 32 33 33 34 35 37 38 38 38 39 40 39 38 37 37 37 39 40 40 39 38 37 37 37 37 38 38 36 33 32 33 33 33 35 35 33 32 32 31 31 32 31 30 29 27 26 27 27 25 23 20 17 19 21 24 25 25 22 20 19 19
37 36 35 33 32 32 33 34 33 31 30 29 29 28 26 26 26 28 30 31 29 26 25 27 31 32 33 33 34 35 36 36 37 38 38 37 36 36 37 38 40 41 40 40 39 37 36 38 39 39 37 35 33 33 33 33 34 36 35 33 33 34 34 33 31 29 28 27 26 25 25 24 23 21 20 20 22 24 24 24 23 22 20 20 20
36 36 36 34 32 31 32 33 34 33 32 32 31 30 29 27 26 26 28 31 31 30 27 26 29 32 32 31 31 32 32 33 35 36 36 35 35 35 36 37 39 41 41 40 39 38 39 39 38 37 35 35 35 35 34 34 35 36 35 33 34 35 34 32 30 29 28 27 26 25 25 24 23 23 23 24 24 24 24 24 23 22 21 21 21
30 31 32 32 31 31 31 32 34 34 34 34 34 32 31 32 31 29 29 30 32 33 30 28 29 32 32 31 31 30 29 29 31 32 33 33 34 35 37 38 40 40 39 38 38 38 39 38 36 35 35 36 36 35 35 35 35 35 34 32 33 33 31 30 30 29 28 27 26 26 25 25 25 25 25 24 24 23 23 23 22 22 22 21 20
24 25 26 27 27 29 30 32 34 35 35 36 36 35 34 34 35 34 33 32 32 33 33 32 31 32 33 33 32 31 29 27 27 29 30 30 32 34 36 38 39 38 38 38 38 38 38 38 36 35 35 35 35 34 34 35 35 36 35 32 31 30 29 28 28 29 28 28 26 26 26 26 26 26 25 23 22 21 21 21 21 20 21 21 20
23 23 24 24 24 25 27 30 32 34 34 35 36 35 35 36 36 37 37 35 34 34 35 35 34 33 35 36 35 34 31 28 27 27 27 28 30 32 33 35 37 38 40 41 42 42 41 38 35 36 36 35 34 32 34 36 36 35 33 32 30 30 28 27 27 28 29 28 26 26 26 26 26 25 23 21 20 21 21 21 21 20 21 21 20
23 23 24 24 24 24 25 27 29 31 33 34 34 35 36 36 37 38 39 39 37 36 36 37 37 37 37 38 39 37 35 32 30 28 28 28 29 30 32 34 36 37 39 41 42 42 40 37 36 37 37 36 34 32 34 36 36 34 32 30 30 29 27 27 27 29 28 27 26 25 25 26 25 23 22 21 20 21 21 21 20 20 21 21 22
23 23 24 24 24 24 24 25 27 28 30 32 34 35 36 37 37 38 39 40 40 39 38 38 39 40 40 40 41 40 37 35 33 31 30 29 29 30 32 33 33 33 35 36 37 37 37 38 39 39 38 37 35 34 34 35 34 32 30 29 29 29 29 29 28 29 28 27 26 26 25 24 23 22 21 21 20 20 20 19 20 20 21 22 22
23 24 25 25 25 25 25 25 25 26 27 29 32 34 36 37 38 39 39 39 40 40 40 40 40 41 41 41 42 42 39 37 36 34 32 31 30 31 32 31 31 32 33 34 35 35 35 35 37 37 36 36 36 35 35 36 35 32 30 29 29 30 31 30 29 28 28 28 27 25 24 23 22 21 21 20 20 19 19 19 20 20 20 20 21
21 22 24 25 26 26 26 26 25 25 26 27 29 32 34 35 37 39 40 40 40 40 41 41 41 41 41 41 42 42 41 39 38 37 36 34 32 32 32 32 31 32 34 36 36 35 34 34 34 34 35 35 34 34 35 36 36 34 32 31 32 32 32 31 29 28 28 28 26 25 24 23 22 21 21 20 19 19 18 17 17 18 18 18 19
20 20 21 23 24 25 26 27 27 27 27 27 28 30 32 34 35 37 39 40 40 40 41 41 41 42 42 41 41 42 43 41 40 39 38 37 35 34 34 34 34 35 36 36 36 35 35 35 35 34 33 33 33 34 34 35 35 33 32 33 33 33 33 32 30 29 29 29 27 25 24 23 22 22 20 18 17 16 15 15 15 15 16 16 17
22 21 20 20 22 24 25 26 27 28 28 28 29 29 31 32 33 34 35 38 40 41 40 40 40 41 42 41 41 42 43 43 42 42 41 40 38 36 36 36 37 37 38 38 38 38 38 39 38 37 36 35 35 35 36 36 35 34 33 34 34 32 32 32 31 30 30 29 27 25 24 23 22 20 18 16 15 14 14 14 14 14 14 14 14
25 24 23 22 22 22 23 24 25 26 28 29 29 29 30 31 32 32 33 34 37 39 41 40 39 39 40 40 39 40 41 42 44 44 43 41 40 39 38 39 39 39 38 38 38 38 38 38 38 38 36 35 35 34 35 36 37 37 36 34 32 31 32 32 31 30 30 28 27 25 24 23 20 18 17 16 15 14 13 13 13 12 12 12 12
28 27 27 27 26 25 24 22 21 22 24 26 28 29 29 30 31 32 32 32 33 35 38 39 39 39 38 38 37 37 38 41 44 46 45 41 40 41 41 41 41 40 40 39 39 39 39 37 36 35 34 34 35 35 35 37 38 37 34 32 31 32 33 31 30 29 28 27 26 25 23 21 19 18 18 16 14 13 13 13 12 12 11 11 10
30 29 29 29 29 29 28 26 23 21 21 22 25 27 29 29 29 30 31 31 32 33 34 36 37 38 37 37 36 37 38 40 42 44 43 41 41 41 40 40 39 38 38 39 39 40 40 39 37 36 36 37 38 38 38 38 38 36 33 32 33 35 34 32 30 29 27 26 25 23 22 21 20 19 17 15 14 14 14 13 12 10 10 9 9
31 31 31 31 31 31 31 30 28 25 24 22 23 24 25 27 29 30 30 29 31 32 34 34 34 33 34 36 36 37 38 39 38 37 36 39 41 39 38 38 36 35 35 36 36 38 39 38 37 37 37 38 40 40 40 40 39 37 34 34 35 36 35 33 31 28 27 25 24 23 22 21 20 18 17 16 16 15 14 12 11 10 9 9 8
33 33 33 33 33 33 34 34 33 31 29 27 26 25 25 25 27 29 30 30 30 31 33 34 33 31 31 33 34 35 37 37 36 34 33 35 36 35 35 37 36 34 35 35 36 38 39 40 39 39 39 39 39 40 40 40 39 38 36 36 37 36 35 33 30 28 27 25 24 24 22 21 20 19 19 18 16 15 13 12 10 9 9 8 8
35 35 35 36 36 35 36 36 35 34 33 31 30 29 28 27 27 28 30 30 31 31 32 32 32 31 31 31 32 33 34 34 35 34 32 31 31 30 31 33 35 37 37 37 38 41 41 41 41 42 41 41 41 41 41 40 41 40 39 38 37 35 33 31 29 28 28 27 26 24 22 21 21 20 19 18 16 14 13 12 10 10 9 8 9
36 36 36 36 37 37 38 38 37 37 36 34 32 31 31 31 30 29 29 29 31 32 32 33 32 31 31 30 30 31 31 32 33 33 29 27 27 27 27 29 33 36 37 37 41 44 45 44 44 44 44 44 44 43 42 42 43 42 41 40 38 34 32 30 30 29 29 27 26 25 23 22 22 20 19 17 16 14 13 12 11 10 9 9 9
36 37 37 36 37 37 38 39 39 39 38 37 35 34 33 33 33 32 30 29 30 31 32 33 33 32 31 30 29 29 30 30 31 30 27 26 26 26 26 28 30 32 35 38 41 44 45 45 45 45 45 45 45 45 45 44 43 42 41 39 36 33 31 31 31 30 29 27 25 24 23 23 22 20 19 17 15 14 13 11 11 10 10 10 10
37 38 38 38 39 39 38 38 39 40 40 38 36 34 34 34 34 33 32 31 31 32 32 32 33 33 32 30 28 28 27 28 30 29 27 26 25 25 26 28 30 34 37 40 42 43 43 44 44 44 44 44 45 46 45 44 42 41 39 36 33 31 32 32 31 30 28 27 25 24 24 23 21 20 18 16 15 14 12 12 11 10 10 10 11
38 39 39 39 39 40 40 40 40 40 41 40 38 36 35 34 34 34 34 33 33 33 33 32 32 32 32 30 28 26 24 25 27 27 26 25 24 24 27 31 36 40 42 43 44 44 44 44 44 44 43 43 45 45 44 43 41 39 36 33 31 31 30 30 30 29 28 27 26 25 24 22 21 19 17 15 14 13 12 11 10 10 11 11 12
41 41 40 39 39 40 41 41 41 41 41 41 40 38 36 35 34 33 33 34 35 35 35 34 33 32 31 30 28 25 22 23 25 26 26 25 25 28 32 36 40 43 45 46 45 45 45 45 44 43 42 43 44 43 42 41 39 36 33 31 30 30 30 30 30 29 29 28 27 25 24 22 20 18 16 15 14 13 11 11 11 11 12 12 13
42 43 42 41 40 40 40 41 41 41 41 41 41 40 38 36 34 33 33 34 35 36 36 36 35 34 31 29 27 24 21 21 23 25 26 26 29 33 36 38 40 43 45 46 46 46 46 44 42 41 41 42 42 42 41 39 36 33 32 31 30 30 30 30 30 30 29 28 26 24 23 20 18 17 15 14 13 12 11 11 12 12 13 13 13
42 43 43 42 42 41 40 40 40 40 41 41 41 40 39 38 35 33 33 33 34 35 36 37 38 37 34 30 26 22 19 19 23 27 29 30 33 36 37 38 40 42 44 45 46 47 46 43 40 39 40 40 41 40 39 36 34 34 33 32 32 31 31 30 30 30 29 27 25 23 21 19 17 16 15 14 13 11 11 12 13 13 14 13 13
42 42 42 42 42 42 41 40 40 40 40 40 40 40 40 39 36 34 33 33 34 35 35 37 39 39 37 33 28 23 20 21 25 30 33 35 36 37 37 38 40 42 43 44 45 46 46 43 40 39 39 39 38 38 36 35 35 34 34 33 33 33 32 32 32 30 28 26 24 22 20 18 17 16 14 13 12 12 12 13 14 14 14 13 12
42 42 42 42 42 42 41 40 40 39 39 39 39 39 39 38 36 34 33 33 33 34 35 37 38 38 37 35 31 26 24 23 25 28 33 37 39 39 38 39 40 42 43 43 44 46 45 42 40 40 40 39 37 36 36 36 36 34 33 33 34 34 33 33 31 29 26 24 22 20 19 17 16 15 13 12 12 12 13 14 14 14 13 13 12
41 42 42 42 42 42 41 41 40 39 38 37 37 37 37 37 36 33 32 32 32 33 34 36 37 37 36 35 32 29 27 26 25 27 31 37 40 41 40 40 41 42 43 43 44 45 44 41 41 41 41 38 36 36 36 35 34 33 33 33 34 33 32 31 28 26 23 21 20 19 18 16 15 13 13 13 13 13 14 14 14 13 13 13 13
38 40 41 41 41 41 41 41 40 39 37 37 36 36 36 35 34 32 31 31 31 32 33 35 36 36 35 33 32 30 30 29 29 29 31 35 39 40 40 40 41 42 43 43 44 44 42 41 41 40 38 36 35 36 35 34 33 33 33 33 33 31 30 28 25 23 21 20 19 18 16 15 14 13 13 13 13 14 14 14 14 13 13 14 13
37 38 38 39 39 39 40 40 39 38 37 36 35 35 34 33 32 31 30 30 31 31 32 33 35 35 34 32 32 32 31 31 31 31 32 35 38 40 40 41 42 42 42 42 41 40 38 38 38 37 36 35 35 34 33 32 31 31 32 32 30 28 26 24 22 22 21 20 18 17 15 14 14 14 14 14 14 14 14 14 14 14 14 14 14
35 36 36 36 37 38 38 38 38 37 36 35 34 34 33 32 31 30 29 29 30 31 30 32 34 34 33 32 32 33 32 32 33 33 33 35 37 39 40 41 41 41 40 38 37 35 34 34 35 35 34 33 32 30 29 29 30 31 30 29 27 25 23 22 21 21 20 18 17 17 16 15 14 14 14 14 14 14 14 14 14 14 15 14 14
33 33 33 34 35 36 37 36 36 36 35 34 33 33 32 31 31 30 28 28 30 30 30 31 32 33 33 32 33 33 33 33 34 34 35 36 37 38 39 39 38 37 35 34 32 32 31 32 31 30 30 29 28 28 28 29 29 29 27 25 24 24 23 22 21 20 19 19 18 17 16 15 14 14 14 14 14 14 14 15 15 15 15 15 14
30 30 31 32 33 34 34 34 34 34 33 33 32 31 31 30 30 29 28 28 29 29 30 30 31 31 31 32 32 32 33 33 34 35 35 36 36 36 36 36 34 33 31 29 28 28 27 27 25 25 25 26 27 28 28 28 28 27 25 24 24 23 22 22 21 20 19 18 17 16 15 14 14 14 14 14 15 15 15 16 16 15 15 15 15
28 28 28 28 29 30 30 30 30 30 30 29 29 28 28 28 28 27 27 27 28 29 29 29 30 30 30 31 31 31 32 33 33 34 34 33 33 32 31 29 27 26 24 23 22 22 22 22 22 23 25 27 27 27 26 25 24 23 23 22 22 21 21 20 20 19 18 17 16 15 15 14 14 14 15 15 15 16 16 16 16 16 16 15 15
24 24 24 24 24 25 25 25 25 24 24 24 24 24 24 24 24 24 24 25 26 27 28 28 28 28 28 28 28 30 31 31 32 32 30 29 27 25 23 22 21 20 19 19 20 21 22 23 24 25 25 25 24 23 22 21 21 21 20 20 20 20 19 19 18 17 16 15 15 15 14 14 14 15 15 15 15 16 16 17 16 16 16 16 15
19 19 19 19 19 20 20 20 19 19 19 19 19 19 19 19 20 20 21 22 23 25 25 25 25 25 25 25 25 27 28 28 27 26 24 22 20 19 17 17 17 18 20 21 23 24 25 25 25 24 22 21 20 20 20 20 20 19 19 19 19 18 18 17 16 15 15 15 14 14 14 14 14 15 15 16 16 17 17 17 17 16 16 16 15
14 14 14 15 16 16 16 16 15 15 15 15 15 15 15 15 16 16 17 18 19 21 21 21 21 20 20 20 21 21 21 21 20 19 18 17 16 16 17 18 19 21 23 24 24 23 22 21 21 20 19 19 19 19 19 19 19 18 18 17 17 17 16 15 15 14 14 14 14 14 14 14 15 15 16 17 17 17 17 17 17 16 16 16 15
11 11 11 12 13 13 13 12 12 12 12 11 11 11 10 11 12 12 12 12 13 14 14 13 12 12 12 12 12 12 12 13 14 14 15 16 17 18 19 21 22 22 22 21 20 19 18 18 18 18 18 18 18 18 18 17 17 17 16 16 15 15 14 14 14 14 13 13 14 14 14 15 15 16 17 17 17 17 17 17 16 16 16 16 15
Wind_Direction
284 285 282 274 265 263 267 271 273 275 276 274 273 272 271 270 268 266 265 263 263 263 263 262 260 259 258 258 257 257 255 254 254 255 254 252 253 254 254 253 253 254 254 254 253 253 253 253 253 254 254 253 251 250 250 251 251 251 251 252 255 256 256 257 258 259 263 267 268 268 271 272 271 273 276 276 275 271 268 268 264 257 257 257 258
294 291 284 272 263 264 271 276 278 278 277 276 275 275 275 275 272 270 267 266 264 261 259 260 260 258 255 255 256 256 254 253 253 253 253 252 253 254 254 254 254 254 254 254 253 252 253 254 254 254 253 253 252 250 250 250 250 251 252 252 253 253 253 255 258 260 261 264 266 267 271 272 272 276 277 274 275 273 265 264 263 259 257 257 257
313 302 292 279 271 270 273 276 277 278 278 277 277 277 277 277 274 271 270 268 265 261 259 259 260 259 255 254 256 256 255 255 254 253 252 253 253 254 254 254 254 254 254 253 252 252 253 254 255 255 255 253 251 249 248 248 247 250 252 250 249 250 252 253 256 260 261 263 264 265 267 271 273 276 277 275 273 268 261 260 263 261 260 260 260
324 309 296 287 281 277 276 276 275 275 275 276 277 277 277 276 275 273 271 269 266 263 263 261 260 260 258 255 256 256 256 256 255 253 253 254 254 254 254 254 254 253 253 252 252 252 253 254 255 255 254 254 252 250 249 248 247 249 250 250 249 252 252 251 254 261 264 264 263 262 262 266 269 270 272 273 271 264 257 257 260 261 263 266 266
329 318 302 290 285 281 279 278 276 274 275 276 276 277 276 275 275 274 273 271 266 263 264 264 263 262 261 259 258 258 258 257 256 255 255 255 256 256 255 255 254 253 252 252 253 254 254 254 255 254 253 253 251 249 247 247 248 250 249 249 249 250 249 247 250 256 260 263 265 264 262 264 267 268 268 270 267 259 255 257 261 263 267 271 268
326 323 311 294 285 284 282 279 279 278 276 276 276 275 275 274 275 274 274 273 268 265 266 267 265 264 262 260 259 259 259 259 257 256 255 255 256 257 257 256 255 253 253 254 255 256 256 255 254 254 253 252 249 249 249 248 249 251 250 248 247 247 249 251 252 253 255 259 262 263 264 265 267 267 267 268 266 259 255 257 261 265 272 276 272
318 321 319 303 287 284 286 285 284 282 280 278 277 275 274 274 275 275 274 274 272 269 268 268 265 263 262 260 259 259 259 259 258 257 256 257 258 259 259 259 258 257 256 256 256 257 256 255 254 252 251 249 248 250 251 250 250 252 254 254 252 250 251 252 254 254 254 256 259 261 262 263 262 264 266 266 263 257 253 257 263 270 276 280 275
309 313 319 315 300 288 287 288 288 287 285 282 278 276 274 274 275 275 275 277 277 274 271 270 268 265 264 262 261 260 259 259 260 260 260 260 260 261 260 259 258 258 258 259 259 260 259 257 254 251 249 249 250 249 248 248 251 254 256 256 255 253 252 251 251 254 256 256 257 258 258 258 259 262 264 264 261 256 255 261 267 273 277 278 274
303 305 310 316 315 304 296 293 292 291 289 285 281 277 274 273 273 274 276 280 282 281 278 274 271 269 267 265 263 262 260 259 259 260 260 260 260 261 261 260 259 258 257 258 259 259 260 258 256 252 248 247 247 245 245 248 252 256 257 255 252 251 251 250 249 252 254 252 252 254 255 256 258 261 264 266 264 260 260 263 266 271 276 277 270
298 298 300 305 312 313 311 307 303 298 293 287 284 279 275 272 271 271 274 279 283 284 282 278 274 272 270 268 266 264 262 260 259 258 258 258 258 258 258 258 258 256 256 255 254 255 256 255 255 254 249 245 244 245 248 248 249 254 256 251 248 247 248 250 251 250 249 249 250 253 255 258 262 264 267 268 266 262 261 262 265 270 273 271 267
293 292 295 297 301 305 309 310 310 308 302 293 287 283 280 276 273 271 270 275 280 283 283 282 280 277 273 270 268 266 265 263 262 259 258 256 254 253 253 253 254 254 254 253 252 253 254 251 249 248 245 243 246 251 254 249 246 250 250 245 245 247 248 250 252 251 249 250 253 256 259 263 268 269 267 264 261 260 259 261 266 271 270 265 266
292 290 292 295 296 297 300 301 303 307 306 300 293 288 285 282 277 273 269 271 277 280 284 286 284 280 276 272 270 268 267 266 263 261 259 256 252 250 249 250 250 252 253 253 251 251 253 252 246 242 242 245 248 251 251 246 242 245 247 243 243 246 248 250 252 255 257 257 258 260 264 268 271 270 266 261 258 257 258 262 268 271 267 261 262
295 293 294 296 296 296 295 294 294 296 299 300 297 293 291 288 283 278 274 271 272 278 285 288 286 283 279 275 273 271 269 267 264 262 260 256 252 249 247 248 248 250 250 251 251 251 251 252 247 241 245 251 250 244 242 241 240 242 245 245 246 248 250 250 253 257 260 261 262 264 266 268 268 265 262 257 254 254 258 264 269 267 262 257 257
299 298 297 299 299 298 296 293 289 287 286 287 289 290 291 289 286 282 278 273 272 278 286 288 286 284 281 278 276 273 271 269 266 263 259 256 252 248 245 245 247 249 251 252 252 250 247 248 248 247 249 252 249 242 239 239 240 244 246 247 249 250 248 248 251 253 256 260 264 266 266 265 261 257 254 251 250 255 261 266 267 263 256 252 251
299 300 299 299 299 299 298 295 291 288 282 278 276 278 280 282 281 279 276 272 271 275 283 288 287 284 281 279 277 274 273 271 267 263 259 255 252 248 246 245 245 248 251 251 249 246 244 247 250 251 249 248 247 245 242 242 243 246 248 248 249 250 247 247 250 252 253 258 263 265 264 261 253 248 248 250 253 259 263 264 262 256 249 247 247
299 300 299 299 298 297 296 293 292 291 288 282 277 274 274 276 277 277 274 271 270 271 276 284 286 282 279 277 275 275 275 272 269 265 260 255 250 247 247 246 247 249 248 246 246 247 248 250 250 249 249 249 249 245 242 243 244 246 248 248 246 244 243 245 250 251 253 257 260 259 256 252 248 245 248 253 258 262 262 259 256 252 248 248 250
303 304 304 303 301 297 293 289 287 287 287 286 283 280 276 274 274 277 276 272 271 270 272 278 280 278 275 273 273 274 274 272 270 266 260 255 248 245 244 244 246 247 246 247 249 250 250 250 251 252 252 251 249 244 242 244 245 245 247 247 243 240 241 246 249 249 252 256 257 254 249 246 246 248 251 255 259 260 259 255 253 251 249 250 252
311 313 314 312 308 302 295 290 286 283 281 282 283 283 281 275 273 273 274 272 270 268 269 272 274 275 273 270 270 271 272 271 269 265 261 256 250 246 244 243 243 243 245 247 249 248 249 251 252 251 249 247 247 244 243 245 247 246 243 240 241 243 247 249 248 247 251 253 251 247 244 244 247 250 253 255 257 257 255 253 250 248 247 248 250
314 315 317 318 317 312 305 298 292 287 282 279 278 278 277 276 273 272 272 272 270 267 267 268 269 271 271 269 267 268 269 268 265 262 260 256 252 249 246 244 243 242 244 245 246 247 249 249 247 244 242 243 243 241 241 245 248 246 240 239 242 247 249 250 250 250 251 249 245 241 242 244 247 249 250 251 252 253 252 250 248 244 244 246 248
315 314 315 317 319 320 317 309 302 296 290 285 280 275 271 270 269 269 269 270 269 267 266 266 267 268 268 267 266 266 267 267 264 260 256 253 252 250 247 245 244 244 244 243 244 245 244 241 240 240 239 240 239 238 239 242 242 239 237 239 244 247 249 249 249 248 246 242 239 239 240 243 244 243 244 246 248 249 249 249 247 245 244 247 249
317 317 317 318 319 321 321 317 312 306 298 291 286 281 275 270 267 265 265 266 267 266 266 265 265 266 266 266 266 265 265 265 263 260 256 252 250 248 247 247 247 247 245 244 244 243 240 238 239 239 239 240 241 239 238 237 236 235 235 239 245 249 250 247 244 241 237 234 235 236 236 237 236 237 240 244 246 247 247 247 246 246 247 249 252
315 316 318 320 322 323 322 321 318 314 307 298 290 286 282 277 272 268 265 266 266 266 266 266 266 267 266 267 267 266 265 263 262 261 258 253 249 247 247 249 247 244 244 243 243 242 241 240 240 240 242 243 243 242 239 238 238 237 237 242 247 249 246 241 237 233 230 230 232 232 230 230 233 237 241 243 244 245 244 244 245 247 251 254 256
312 314 315 318 320 323 325 325 323 319 315 307 298 291 286 282 278 274 270 268 268 268 268 269 270 270 269 267 268 268 266 262 261 261 259 255 250 248 248 249 247 245 244 243 244 245 245 243 241 240 241 241 241 240 239 238 238 238 240 244 246 243 238 234 230 226 226 227 227 225 225 228 233 239 242 241 241 242 242 243 246 250 253 255 257
309 312 315 317 319 321 325 329 330 328 323 316 308 299 290 284 281 279 275 272 270 270 271 272 273 273 272 270 269 268 266 263 260 259 258 255 252 249 249 249 248 246 245 245 244 244 244 242 240 239 240 241 243 245 244 241 237 236 239 241 238 234 233 230 225 222 224 224 221 220 224 230 235 239 241 239 238 238 240 240 242 247 250 253 256
309 310 313 318 320 321 323 328 333 334 330 324 317 310 301 291 284 282 281 278 276 274 274 275 276 276 276 275 272 270 268 265 262 259 257 255 252 250 249 248 247 245 244 244 243 242 243 243 243 244 245 246 248 247 244 239 235 233 235 234 232 231 231 228 223 221 221 219 217 219 225 231 235 236 235 233 231 232 234 236 238 243 246 249 254
313 312 313 317 319 319 320 323 329 334 334 330 324 318 311 304 295 289 285 283 282 281 279 279 280 280 279 279 278 276 273 269 265 261 258 255 254 253 250 246 244 244 244 243 243 243 244 243 244 245 245 243 242 239 235 232 230 228 227 227 228 230 229 225 222 219 216 214 217 223 228 230 229 227 225 224 225 227 229 232 234 237 242 247 251
313 315 317 318 318 318 317 318 323 328 331 331 328 324 319 313 306 300 293 288 286 286 285 284 284 282 282 282 281 279 277 272 267 263 260 257 254 253 249 245 241 240 239 239 239 240 241 241 241 241 238 235 233 232 232 230 226 222 223 225 227 226 225 221 218 215 214 218 224 227 226 222 219 218 219 218 218 221 224 225 228 233 238 243 248
309 312 317 319 319 318 317 317 319 320 321 323 325 326 324 320 314 307 302 297 293 289 287 286 285 284 284 283 281 278 276 273 270 268 266 263 258 253 248 244 240 238 238 239 237 237 238 239 238 234 230 229 227 225 224 224 221 220 223 227 225 222 219 215 212 212 217 224 227 224 217 213 212 213 213 212 213 218 221 223 224 226 230 236 246
306 308 312 316 318 318 317 317 318 317 315 314 314 318 321 322 319 314 308 304 300 295 290 286 286 287 287 285 282 279 276 275 275 274 271 269 265 259 253 248 245 244 244 243 240 236 234 232 230 228 226 225 223 221 220 220 218 218 222 225 222 218 214 211 211 215 222 225 220 213 209 208 208 209 209 210 213 216 219 220 218 216 219 230 246
306 307 308 311 315 317 317 316 316 316 315 314 312 312 313 316 319 319 314 308 303 298 293 290 288 287 286 285 284 282 280 280 278 274 269 267 267 264 258 253 251 249 248 244 239 235 232 229 228 227 225 223 221 220 220 219 218 218 221 221 216 212 210 210 214 220 222 218 211 207 206 205 206 208 209 210 211 212 213 213 211 213 219 230 245
307 307 307 307 309 312 314 314 314 313 313 313 313 312 311 310 313 316 317 313 307 300 295 293 290 285 283 283 283 283 283 281 277 273 269 265 263 261 257 254 252 251 249 244 239 235 232 231 231 229 227 226 225 223 223 223 223 222 220 215 210 209 210 213 217 220 217 211 205 203 203 203 205 207 208 207 205 205 206 206 210 217 225 236 248
306 306 305 304 304 306 308 311 312 311 311 311 311 311 310 309 308 309 312 313 311 306 300 294 290 287 284 282 281 282 282 279 276 274 270 263 256 252 252 252 251 250 249 245 241 238 236 235 234 232 231 230 228 226 227 227 225 221 216 211 208 209 213 218 221 218 212 206 203 202 201 202 203 204 203 201 200 201 203 206 213 223 231 239 248
305 304 304 303 301 301 302 305 308 309 309 309 309 309 309 307 306 306 305 305 306 308 305 299 293 288 284 281 279 279 279 278 275 271 265 258 251 248 249 249 249 247 244 240 238 237 236 235 235 234 233 232 230 228 228 226 223 217 213 211 212 214 219 223 220 213 207 204 202 201 200 199 199 199 198 197 199 202 206 212 219 226 232 238 246
303 302 303 302 301 300 299 299 301 304 305 306 307 306 306 305 304 303 301 299 299 301 303 302 296 289 283 279 277 276 275 274 271 266 260 254 250 248 248 247 245 243 240 238 236 236 235 235 235 234 233 231 229 228 225 222 218 214 211 211 215 220 223 221 213 205 203 201 199 197 196 195 195 196 197 197 201 206 211 216 222 227 233 241 249
301 300 300 300 300 299 299 298 297 298 300 303 303 303 303 302 301 301 300 298 296 295 295 296 295 291 285 279 274 271 270 268 265 261 257 252 248 246 244 241 238 236 235 235 235 235 235 236 236 235 233 231 229 227 224 219 214 212 212 216 219 220 218 213 206 202 200 197 193 191 191 191 192 194 197 200 205 210 213 218 222 230 240 248 252
300 299 299 299 299 298 297 297 296 296 296 298 299 300 299 299 298 299 299 297 296 294 293 292 290 289 286 280 275 271 266 262 258 255 251 247 245 244 243 240 236 234 233 233 232 232 233 234 234 235 234 232 229 225 221 216 214 214 217 221 220 216 212 207 203 199 195 192 190 188 189 190 192 195 198 202 206 209 213 221 230 238 246 251 254
297 297 297 298 298 297 295 294 294 294 294 294 294 296 297 297 297 298 297 297 297 296 294 292 288 286 284 280 276 272 267 260 255 250 245 242 243 246 247 244 240 238 236 235 233 231 230 230 231 232 232 229 225 221 217 215 217 218 219 217 214 211 208 204 200 196 191 188 187 187 188 191 194 196 199 202 205 209 217 228 239 245 248 251 255
292 293 294 295 296 296 295 294 293 292 292 291 291 292 293 294 295 296 296 297 297 295 294 292 289 286 285 282 277 271 265 256 249 244 238 236 239 245 248 247 244 242 240 238 236 233 230 228 230 231 230 225 220 217 216 217 220 220 216 210 206 205 203 199 195 192 188 186 186 187 190 193 194 196 199 202 207 217 227 236 243 248 249 251 252
290 289 291 292 293 293 293 293 292 291 291 290 290 290 290 291 292 293 294 295 295 295 293 291 289 288 287 284 279 271 260 250 245 241 238 235 236 240 243 243 242 241 240 238 237 233 229 228 230 230 226 221 218 218 220 221 220 216 210 206 202 199 196 192 190 188 186 186 187 189 191 192 193 195 200 206 215 226 235 241 244 246 249 250 247
288 288 288 289 290 290 291 291 290 290 289 290 290 289 288 288 288 289 290 292 292 292 290 289 288 289 288 284 281 276 266 256 248 245 242 239 237 237 239 239 239 239 237 236 234 231 227 228 230 228 222 218 219 221 223 221 216 210 206 203 199 194 190 189 188 187 186 187 190 190 191 192 194 198 205 215 226 235 240 243 244 244 245 245 240
286 286 286 287 288 288 288 288 289 289 289 289 288 287 286 286 286 287 287 288 289 290 289 287 288 288 286 284 282 278 272 265 257 251 248 245 241 238 237 237 237 238 237 236 233 229 227 228 229 225 219 217 220 221 220 216 211 207 203 199 194 190 187 187 187 187 188 189 189 190 191 194 199 207 215 224 233 239 241 242 243 241 238 236 233
287 286 286 286 287 288 288 287 288 288 288 288 288 287 286 285 284 283 282 283 285 286 286 286 285 285 285 283 280 274 269 263 258 253 249 245 241 237 235 234 235 236 237 235 233 230 228 227 225 221 220 222 223 220 216 211 206 203 198 193 189 187 186 185 186 187 189 189 190 193 197 201 208 217 225 231 237 241 241 242 241 237 231 228 227
291 289 288 288 288 288 287 287 287 287 287 288 288 287 285 282 280 279 278 279 280 281 282 283 282 281 282 281 277 271 264 259 254 250 245 241 237 233 231 231 232 233 233 232 231 230 228 225 223 222 223 224 221 217 212 206 199 194 189 186 184 184 184 186 188 189 190 193 195 199 205 211 217 225 232 236 239 241 241 241 237 230 225 223 223
293 293 292 292 291 290 289 289 288 287 287 286 286 285 282 279 278 277 275 275 276 278 280 280 278 278 278 277 273 267 261 256 252 248 243 239 234 231 229 229 229 229 229 228 227 226 225 225 226 227 224 219 213 208 203 195 188 184 183 182 182 182 185 188 191 193 196 200 204 208 213 218 224 230 236 239 240 240 239 236 231 226 223 222 221
295 294 293 292 292 291 291 291 290 289 288 287 285 283 280 278 276 275 275 275 276 276 277 277 276 275 274 272 269 264 258 253 249 245 241 237 232 229 227 226 226 226 227 226 226 226 226 226 227 224 217 209 201 195 188 182 177 176 177 179 182 184 188 192 196 201 205 209 211 214 217 222 227 232 237 239 239 236 233 230 226 223 222 222 221
293 292 291 290 290 290 290 291 291 290 289 288 286 283 281 278 276 276 275 275 275 275 275 274 273 271 270 267 263 258 253 249 245 241 237 233 229 226 225 225 225 226 227 227 227 226 223 218 215 209 202 194 187 181 177 174 173 174 178 182 186 190 195 200 205 209 212 213 214 217 220 223 228 232 234 234 233 230 227 224 222 222 222 222 221
290 289 289 289 289 289 290 290 290 290 290 288 287 285 283 282 280 279 278 277 275 274 273 270 267 265 264 261 258 253 248 244 240 236 233 230 227 225 224 224 224 225 225 224 221 215 207 198 193 188 184 179 175 174 173 174 177 181 186 190 195 200 204 208 211 212 213 215 217 219 222 225 228 231 231 230 228 225 222 220 220 221 221 222 221
289 290 290 291 291 291 292 292 292 292 291 290 288 287 286 285 284 282 281 279 277 274 270 267 263 261 259 258 254 249 243 239 236 233 232 230 227 226 224 221 218 215 210 204 197 188 179 174 170 169 170 170 171 174 178 182 186 191 195 198 202 206 208 210 212 213 214 217 219 222 225 227 228 229 229 226 222 221 219 219 218 218 219 222 222
292 293 294 295 295 296 297 297 298 298 297 296 294 293 292 290 288 286 284 282 278 273 269 265 263 260 258 254 249 244 240 236 234 232 231 229 225 220 213 205 198 191 183 177 171 166 163 162 162 164 168 173 178 184 189 193 196 199 201 203 205 207 208 211 213 215 218 221 222 224 227 228 228 227 225 222 218 217 217 217 217 217 218 220 222
298 300 301 302 302 303 303 304 304 304 304 304 304 304 303 300 295 291 288 284 278 272 268 265 263 260 255 249 243 239 236 234 231 227 222 216 208 198 187 177 169 164 161 160 160 161 162 165 168 173 178 184 189 194 198 200 202 203 204 205 207 209 210 213 216 219 221 223 225 227 228 228 226 224 222 219 217 216 216 216 217 218 218 220 222
316 316 315 313 311 310 310 310 309 308 308 310 312 313 312 308 301 296 293 290 282 274 269 266 262 254 246 238 231 227 224 219 212 205 197 188 179 171 164 159 156 155 156 159 163 167 171 176 180 184 189 194 197 201 203 204 205 206 207 208 211 213 215 216 220 222 224 225 226 227 227 225 223 221 219 217 216 215 216 217 217 218 219 221 223